Wichita Falls, TX

6:53 AM CDT on April 24, 2018 (GMT -0500)
Wichita Falls

Weather History for KCWC - September, 2013

Change the Weather History Date:

Thursday, September 5, 2013

  Actual Average (KSPS) Record (KSPS)
Temperature  
Mean Temperature 87 °F -  
Max Temperature 99 °F 90 °F 108 °F (1998)
Min Temperature 75 °F 66 °F 51 °F (1974)
Cooling Degree Days 22    
Growing Degree Days 37 (Base 50)    
Moisture  
Dew Point 59 °F    
Average Humidity 40    
Maximum Humidity 66    
Minimum Humidity 20    
Precipitation  
Precipitation 0.00 in - - ()
Sea Level Pressure  
Sea Level Pressure 30.08 in    
Wind  
Wind Speed 6 mph (ESE)    
Max Wind Speed 12 mph    
Max Gust Speed 9 mph    
Visibility 10 miles    
Events      
Averages and records for this station are not official NWS values.
T = Trace of Precipitation, MM = Missing Value Source: NWS Daily Summary

Daily Weather History Graph

Daily Weather History Graph

Search for Another Location

Airport or City:

Astronomy

Sep. 05, 2013 Rise Set
Actual Time 7:10 AM CDT 7:53 PM CDT
Civil Twilight 6:45 AM CDT 8:19 PM CDT
Nautical Twilight 6:15 AM CDT 8:48 PM CDT
Astronomical Twilight 5:44 AM CDT 9:19 PM CDT
Moon 7:20 AM CDT (9/5) 7:50 PM CDT (9/5)
Length of Visible Light 13h 33m
Length of Day
12h 43m
New Moon, 0% of the Moon is Illuminated
Sep 5
New Moon
Sep 12
First Quarter
Sep 19
Full
Sep 26
Last Quarter
Oct 4
New

Hourly Weather History & Observations

Time (CDT) Temp. Heat Index Dew Point Humidity Pressure Visibility Wind Dir Wind Speed Gust Speed Precip Events Conditions
12:15 AM 84.7 °F 84.2 °F 58.5 °F 41% 30.07 in 10.0 mi East 8.1 mph - N/A   Clear
12:35 AM 83.8 °F 83.6 °F 59.0 °F 43% 30.07 in 10.0 mi ESE 6.9 mph - N/A   Clear
12:55 AM 82.8 °F 82.7 °F 59.0 °F 44% 30.07 in 10.0 mi ESE 5.8 mph - N/A   Clear
1:15 AM 82.6 °F 82.6 °F 59.4 °F 45% 30.07 in 10.0 mi ESE 6.9 mph - N/A   Clear
1:35 AM 83.3 °F 83.2 °F 59.4 °F 44% 30.07 in 10.0 mi ESE 6.9 mph - N/A   Clear
1:55 AM 83.3 °F 83.4 °F 59.9 °F 45% 30.07 in 10.0 mi ESE 9.2 mph - N/A   Clear
2:15 AM 83.5 °F 83.7 °F 60.4 °F 46% 30.07 in 10.0 mi SE 8.1 mph - N/A   Clear
2:35 AM 82.4 °F 82.9 °F 60.8 °F 48% 30.07 in 10.0 mi ESE 5.8 mph - N/A   Clear
2:55 AM 81.5 °F 82.2 °F 61.0 °F 50% 30.07 in 10.0 mi ESE 4.6 mph - N/A   Clear
3:15 AM 80.6 °F 81.6 °F 61.3 °F 52% 30.07 in 10.0 mi ESE 5.8 mph - N/A   Clear
3:35 AM 79.7 °F - 61.3 °F 53% 30.06 in 10.0 mi East 5.8 mph - N/A   Clear
3:55 AM 79.2 °F - 61.7 °F 55% 30.06 in 10.0 mi ESE 5.8 mph - N/A   Clear
4:15 AM 79.2 °F - 61.9 °F 55% 30.07 in 10.0 mi ESE 5.8 mph - N/A   Clear
4:35 AM 78.8 °F - 62.2 °F 57% 30.07 in 10.0 mi East 6.9 mph - N/A   Clear
4:55 AM 78.8 °F - 62.6 °F 57% 30.07 in 10.0 mi ESE 5.8 mph - N/A   Clear
5:15 AM 78.4 °F - 62.8 °F 58% 30.07 in 10.0 mi East 4.6 mph - N/A   Clear
5:35 AM 77.0 °F - 62.8 °F 61% 30.07 in 10.0 mi East 5.8 mph - N/A   Clear
5:55 AM 77.0 °F - 63.1 °F 62% 30.08 in 10.0 mi Calm Calm - N/A   Clear
6:15 AM 75.4 °F - 63.0 °F 65% 30.08 in 10.0 mi Calm Calm - N/A   Clear
6:35 AM 75.2 °F - 63.0 °F 66% 30.08 in 10.0 mi Calm Calm - N/A   Clear
6:55 AM 75.2 °F - 63.0 °F 66% 30.09 in 10.0 mi East 3.5 mph - N/A   Clear
7:15 AM 75.2 °F - 63.0 °F 66% 30.09 in 10.0 mi East 4.6 mph - N/A   Clear
7:35 AM 75.2 °F - 63.1 °F 66% 30.10 in 10.0 mi East 3.5 mph - N/A   Clear
7:55 AM 75.0 °F - 63.1 °F 66% 30.10 in 10.0 mi East 5.8 mph - N/A   Clear
8:15 AM 77.0 °F - 63.7 °F 63% 30.10 in 10.0 mi ESE 4.6 mph - N/A   Clear
8:35 AM 78.3 °F - 64.2 °F 62% 30.11 in 10.0 mi ESE 6.9 mph - N/A   Clear
8:55 AM 80.1 °F 81.8 °F 64.4 °F 59% 30.11 in 10.0 mi ESE 6.9 mph - N/A   Clear
9:15 AM 82.0 °F 83.8 °F 64.8 °F 56% 30.12 in 10.0 mi ESE 8.1 mph - N/A   Clear
9:35 AM 83.3 °F 84.8 °F 64.8 °F 53% 30.12 in 10.0 mi SE 9.2 mph - N/A   Clear
9:55 AM 84.7 °F 86.3 °F 64.9 °F 51% 30.12 in 10.0 mi SE 9.2 mph - N/A   Clear
10:15 AM 86.2 °F 88.2 °F 65.3 °F 50% 30.12 in 10.0 mi ESE 6.9 mph - N/A   Clear
10:35 AM 87.6 °F 89.4 °F 64.9 °F 47% 30.13 in 10.0 mi SE 6.9 mph - N/A   Clear
10:55 AM 89.2 °F 90.9 °F 64.9 °F 44% 30.13 in 10.0 mi ESE 3.5 mph - N/A   Clear
11:15 AM 90.5 °F 92.2 °F 64.8 °F 42% 30.13 in 10.0 mi South 8.1 mph - N/A   Clear
11:35 AM 92.5 °F 94.1 °F 64.0 °F 39% 30.13 in 10.0 mi SSE 11.5 mph - N/A   Clear
11:55 AM 93.0 °F 94.2 °F 63.3 °F 37% 30.13 in 10.0 mi SE 5.8 mph - N/A   Clear
12:15 PM 93.7 °F 94.5 °F 62.1 °F 35% 30.12 in 10.0 mi SSE 6.9 mph - N/A   Clear
12:35 PM 94.8 °F 94.9 °F 61.0 °F 32% 30.12 in 10.0 mi SSE 8.1 mph - N/A   Clear
12:55 PM 96.3 °F 95.5 °F 58.1 °F 28% 30.11 in 10.0 mi SE 8.1 mph - N/A   Clear
1:15 PM 96.1 °F 95.2 °F 57.6 °F 28% 30.10 in 10.0 mi SE 5.8 mph - N/A   Clear
1:35 PM 96.8 °F 94.7 °F 54.0 °F 24% 30.09 in 10.0 mi NNW 3.5 mph - N/A   Clear
1:55 PM 97.7 °F 95.6 °F 54.0 °F 23% 30.09 in 10.0 mi ESE 6.9 mph - N/A   Scattered Clouds
2:15 PM 96.6 °F 95.2 °F 56.7 °F 26% 30.08 in 10.0 mi East 9.2 mph - N/A   Scattered Clouds
2:35 PM 97.7 °F 96.3 °F 56.5 °F 25% 30.08 in 10.0 mi NE 6.9 mph - N/A   Mostly Cloudy
2:55 PM 96.8 °F 95.1 °F 55.8 °F 25% 30.07 in 10.0 mi ESE 5.8 mph 9.2 mph N/A   Scattered Clouds
3:15 PM 98.8 °F 97.4 °F 56.3 °F 24% 30.06 in 10.0 mi Calm Calm - N/A   Clear
3:35 PM 98.6 °F 97.2 °F 55.6 °F 24% 30.06 in 10.0 mi East 8.1 mph - N/A   Clear
3:55 PM 99.1 °F 97.5 °F 55.2 °F 23% 30.05 in 10.0 mi East 8.1 mph - N/A   Clear
4:15 PM 96.8 °F 95.1 °F 55.2 °F 25% 30.05 in 10.0 mi Calm Calm - N/A   Clear
4:35 PM 99.5 °F 97.6 °F 54.3 °F 22% 30.04 in 10.0 mi East 9.2 mph - N/A   Mostly Cloudy
4:55 PM 97.3 °F 95.1 °F 53.8 °F 23% 30.04 in 10.0 mi East 4.6 mph - N/A   Scattered Clouds
5:15 PM 98.2 °F 95.9 °F 53.4 °F 22% 30.03 in 10.0 mi Calm Calm - N/A   Clear
5:35 PM 99.3 °F - 52.3 °F 21% 30.03 in 10.0 mi East 11.5 mph - N/A   Clear
5:55 PM 98.4 °F - 51.6 °F 21% 30.03 in 10.0 mi East 4.6 mph - N/A   Clear
6:15 PM 99.0 °F - 50.9 °F 20% 30.02 in 10.0 mi ESE 6.9 mph - N/A   Clear
6:35 PM 98.6 °F - 51.1 °F 20% 30.02 in 10.0 mi East 8.1 mph - N/A   Clear
6:55 PM 97.7 °F - 51.3 °F 21% 30.02 in 10.0 mi East 5.8 mph - N/A   Clear
7:15 PM 96.8 °F - 52.7 °F 23% 30.02 in 10.0 mi East 6.9 mph - N/A   Clear
7:35 PM 95.5 °F 93.1 °F 53.8 °F 24% 30.02 in 10.0 mi East 6.9 mph - N/A   Clear
7:55 PM 94.1 °F 91.9 °F 54.1 °F 26% 30.03 in 10.0 mi East 8.1 mph - N/A   Clear
8:15 PM 91.9 °F 89.8 °F 54.7 °F 28% 30.03 in 10.0 mi ESE 5.8 mph - N/A   Clear
8:35 PM 91.4 °F 89.4 °F 54.9 °F 29% 30.04 in 10.0 mi ESE 6.9 mph - N/A   Clear
8:55 PM 89.1 °F 87.3 °F 55.4 °F 32% 30.05 in 10.0 mi East 5.8 mph - N/A   Clear
9:15 PM 88.9 °F 87.1 °F 55.0 °F 32% 30.05 in 10.0 mi ESE 6.9 mph - N/A   Clear
9:35 PM 88.7 °F 86.9 °F 55.4 °F 32% 30.07 in 10.0 mi ESE 6.9 mph - N/A   Clear
9:55 PM 87.3 °F 85.7 °F 55.8 °F 34% 30.08 in 10.0 mi East 5.8 mph - N/A   Clear
10:15 PM 86.2 °F 84.7 °F 55.8 °F 35% 30.08 in 10.0 mi East 6.9 mph - N/A   Clear
10:35 PM 85.6 °F 84.3 °F 55.8 °F 36% 30.08 in 10.0 mi ESE 6.9 mph - N/A   Clear
10:55 PM 84.6 °F 83.5 °F 56.5 °F 38% 30.09 in 10.0 mi East 8.1 mph - N/A   Clear
11:15 PM 84.6 °F 83.4 °F 55.6 °F 37% 30.09 in 10.0 mi ESE 6.9 mph - N/A   Clear
11:35 PM 83.8 °F 82.8 °F 55.8 °F 38% 30.09 in 10.0 mi East 6.9 mph - N/A   Clear
11:55 PM 82.8 °F 82.1 °F 55.9 °F 40% 30.08 in 10.0 mi ESE 5.8 mph - N/A   Clear